Location: Finney State Fishing Lake and Wildlife Area
(38.1834°N, 100.3310°W)
Time: 13:04:55
(UTC+00:00)

BlueWalker 3 - Pass Details

Date: 11 December 2022
Orbit: 499 x 517 km, 53.2° (Epoch: 29 January)

Event Time Altitude Azimuth Distance (km) Brightness Sun altitude
Rises 02:22:38 0° 294° (WNW) 2,613 6.4 -34.8°
Reaches altitude 10° 02:25:32 10° 272° (W) 1,718 5.4 -35.4°
Enters shadow 02:25:56 11° 267° (W) 1,626 5.3 -35.4°
